WEN3539 CYQT-CYWG

Flight info

Callsign WEN3539
Flight time 1h 27m
Altitude 24000
Route GABOV DCT GOVIT NORAK6
Aircraft DH8D/M-SDE2E3FGRY/H

Departure

Time 2026-04-26 01:47
Airport Thunder Bay International Airport (CYQT)

Arrival

Time 2026-04-26 03:14
Airport Winnipeg / James Armstrong Richardson International Airport (CYWG)
Time Latitude Longitude Altitude Speed Heading
2026-04-26 01:05 48.37210 -89.31293 634 ft 0 kts 120°
2026-04-26 01:33 48.37210 -89.31292 634 ft 0 kts 120°
2026-04-26 01:33 48.37212 -89.31297 634 ft 2 kts 120°
2026-04-26 01:33 48.37220 -89.31316 634 ft 2 kts 120°
2026-04-26 01:34 48.37227 -89.31336 634 ft 2 kts 120°
2026-04-26 01:34 48.37232 -89.31349 634 ft 1 kts 120°
2026-04-26 01:34 48.37236 -89.31369 634 ft 2 kts 88°
2026-04-26 01:34 48.37232 -89.31390 634 ft 2 kts 55°
2026-04-26 01:35 48.37224 -89.31402 634 ft 0 kts 36°
2026-04-26 01:41 48.37230 -89.31396 634 ft 4 kts 36°
2026-04-26 01:41 48.37276 -89.31349 633 ft 9 kts 28°
2026-04-26 01:41 48.37315 -89.31363 632 ft 7 kts 285°
2026-04-26 01:41 48.37298 -89.31458 633 ft 11 kts 250°
2026-04-26 01:42 48.37266 -89.31590 633 ft 15 kts 251°
2026-04-26 01:42 48.37228 -89.31754 634 ft 18 kts 250°
2026-04-26 01:42 48.37181 -89.31946 633 ft 21 kts 249°
2026-04-26 01:42 48.37131 -89.32163 636 ft 21 kts 251°
2026-04-26 01:43 48.37091 -89.32344 640 ft 11 kts 264°
2026-04-26 01:43 48.37119 -89.32472 642 ft 14 kts 300°
2026-04-26 01:43 48.37169 -89.32605 646 ft 13 kts 289°
2026-04-26 01:43 48.37161 -89.32742 650 ft 14 kts 252°
2026-04-26 01:44 48.37123 -89.32904 652 ft 18 kts 251°
2026-04-26 01:44 48.37073 -89.33115 650 ft 22 kts 250°
2026-04-26 01:44 48.37027 -89.33291 646 ft 6 kts 230°
2026-04-26 01:44 48.37019 -89.33353 645 ft 6 kts 340°
2026-04-26 01:45 48.37037 -89.33319 645 ft 3 kts 85°
2026-04-26 01:45 48.37040 -89.33270 646 ft 8 kts 74°
2026-04-26 01:45 48.37043 -89.33255 646 ft 0 kts 71°
2026-04-26 01:46 48.37046 -89.33244 647 ft 8 kts 71°
2026-04-26 01:46 48.37151 -89.32780 651 ft 88 kts 70°
2026-04-26 01:46 48.37323 -89.32051 633 ft 131 kts 71°
2026-04-26 01:46 48.37653 -89.30605 748 ft 159 kts 70°
2026-04-26 01:47 48.38036 -89.29005 1207 ft 164 kts 69°
2026-04-26 01:47 48.38569 -89.26730 1503 ft 182 kts 71°
2026-04-26 01:47 48.38849 -89.25523 1749 ft 185 kts 71°
2026-04-26 01:47 48.39437 -89.23064 2262 ft 191 kts 70°
2026-04-26 01:48 48.39908 -89.21160 2661 ft 195 kts 70°
2026-04-26 01:48 48.40386 -89.19269 3057 ft 198 kts 70°
2026-04-26 01:48 48.40890 -89.17320 3460 ft 201 kts 70°
2026-04-26 01:48 48.41235 -89.16000 3711 ft 205 kts 70°
2026-04-26 01:49 48.41960 -89.13201 3928 ft 226 kts 69°
2026-04-26 01:49 48.42530 -89.10986 4341 ft 226 kts 69°
2026-04-26 01:49 48.42899 -89.09541 4732 ft 222 kts 70°
2026-04-26 01:49 48.43607 -89.06681 5437 ft 217 kts 70°
2026-04-26 01:50 48.44183 -89.04624 5907 ft 216 kts 58°
2026-04-26 01:50 48.44856 -89.03521 6178 ft 215 kts 34°
2026-04-26 01:50 48.46737 -89.02882 6712 ft 211 kts 346°
2026-04-26 01:50 48.47988 -89.03879 7084 ft 206 kts 310°
2026-04-26 01:51 48.48500 -89.05074 7337 ft 203 kts 289°
2026-04-26 01:51 48.48970 -89.07069 7762 ft 204 kts 286°
2026-04-26 01:51 48.49433 -89.09061 8188 ft 205 kts 286°
2026-04-26 01:51 48.50066 -89.11764 8771 ft 206 kts 286°
2026-04-26 01:52 48.50388 -89.13101 9067 ft 206 kts 286°
2026-04-26 01:52 48.51050 -89.15803 9661 ft 207 kts 286°
2026-04-26 01:52 48.51558 -89.17805 10103 ft 208 kts 286°
2026-04-26 01:52 48.52081 -89.19846 10579 ft 208 kts 286°
2026-04-26 01:53 48.52602 -89.21862 11030 ft 210 kts 286°
2026-04-26 01:53 48.53135 -89.23918 11514 ft 213 kts 286°
2026-04-26 01:53 48.53675 -89.25984 12008 ft 214 kts 286°
2026-04-26 01:53 48.54222 -89.28062 12526 ft 215 kts 286°
2026-04-26 01:54 48.54776 -89.30149 13045 ft 215 kts 286°
2026-04-26 01:54 48.55329 -89.32227 13580 ft 214 kts 286°
2026-04-26 01:54 48.55886 -89.34293 14089 ft 212 kts 286°
2026-04-26 01:54 48.56439 -89.36326 14592 ft 210 kts 286°
2026-04-26 01:55 48.56998 -89.38345 15076 ft 209 kts 286°
2026-04-26 01:55 48.57567 -89.40350 15537 ft 208 kts 286°
2026-04-26 01:55 48.58142 -89.42343 15961 ft 207 kts 286°
2026-04-26 01:55 48.58723 -89.44308 16376 ft 206 kts 286°
2026-04-26 01:56 48.59313 -89.46265 16774 ft 206 kts 286°
2026-04-26 01:56 48.59915 -89.48220 17157 ft 205 kts 286°
2026-04-26 01:56 48.60520 -89.50164 17513 ft 205 kts 286°
2026-04-26 01:56 48.60920 -89.51438 17743 ft 204 kts 286°
2026-04-26 01:57 48.61744 -89.54025 18192 ft 204 kts 286°
2026-04-26 01:57 48.62364 -89.55933 18514 ft 203 kts 286°
2026-04-26 01:57 48.62989 -89.57820 18826 ft 202 kts 286°
2026-04-26 01:57 48.63620 -89.59716 19125 ft 202 kts 286°
2026-04-26 01:58 48.64270 -89.61571 19395 ft 201 kts 286°
2026-04-26 01:58 48.64757 -89.63499 19657 ft 192 kts 275°
2026-04-26 01:58 48.65103 -89.65426 19899 ft 193 kts 277°
2026-04-26 01:58 48.65491 -89.67374 20153 ft 193 kts 278°
2026-04-26 01:59 48.65881 -89.69308 20405 ft 193 kts 278°
2026-04-26 01:59 48.66272 -89.71226 20640 ft 193 kts 278°
2026-04-26 01:59 48.66672 -89.73174 20886 ft 192 kts 278°
2026-04-26 01:59 48.67070 -89.75098 21110 ft 192 kts 278°
2026-04-26 02:00 48.67462 -89.76998 21321 ft 191 kts 278°
2026-04-26 02:00 48.67863 -89.78931 21532 ft 191 kts 278°
2026-04-26 02:00 48.68258 -89.80834 21723 ft 191 kts 278°
2026-04-26 02:00 48.68657 -89.82750 21909 ft 190 kts 278°
2026-04-26 02:01 48.69053 -89.84651 22094 ft 189 kts 278°
2026-04-26 02:01 48.69444 -89.86534 22258 ft 189 kts 278°
2026-04-26 02:01 48.69841 -89.88442 22414 ft 189 kts 278°
2026-04-26 02:01 48.70235 -89.90339 22567 ft 189 kts 278°
2026-04-26 02:02 48.70629 -89.92231 22710 ft 189 kts 278°
2026-04-26 02:02 48.71021 -89.94122 22842 ft 189 kts 278°
2026-04-26 02:02 48.71411 -89.96002 22975 ft 189 kts 278°
2026-04-26 02:02 48.71675 -89.97276 23065 ft 188 kts 278°
2026-04-26 02:03 48.72192 -89.99773 23236 ft 188 kts 277°
2026-04-26 02:03 48.72585 -90.01672 23363 ft 187 kts 278°
2026-04-26 02:03 48.72971 -90.03532 23490 ft 186 kts 278°
2026-04-26 02:03 48.73227 -90.04774 23570 ft 186 kts 278°
2026-04-26 02:04 48.73614 -90.06644 23692 ft 185 kts 278°
2026-04-26 02:04 48.73992 -90.08472 23811 ft 183 kts 277°
2026-04-26 02:04 48.74371 -90.10307 23929 ft 181 kts 277°
2026-04-26 02:04 48.74872 -90.12740 24016 ft 182 kts 277°
2026-04-26 02:05 48.75248 -90.14576 24042 ft 185 kts 278°
2026-04-26 02:05 48.75634 -90.16467 24043 ft 189 kts 277°
2026-04-26 02:05 48.76021 -90.18369 24053 ft 192 kts 278°
2026-04-26 02:05 48.76419 -90.20325 24054 ft 197 kts 278°
2026-04-26 02:06 48.76822 -90.22304 24059 ft 201 kts 278°
2026-04-26 02:06 48.77100 -90.23668 24057 ft 204 kts 278°
2026-04-26 02:06 48.77664 -90.26438 24057 ft 210 kts 278°
2026-04-26 02:06 48.77953 -90.27860 24056 ft 214 kts 278°
2026-04-26 02:07 48.78549 -90.30793 24054 ft 221 kts 278°
2026-04-26 02:07 48.79003 -90.33028 24058 ft 225 kts 279°
2026-04-26 02:07 48.79310 -90.34537 24053 ft 229 kts 279°
2026-04-26 02:07 48.79941 -90.37648 24054 ft 236 kts 279°
2026-04-26 02:08 48.80263 -90.39235 24053 ft 239 kts 279°
2026-04-26 02:08 48.80757 -90.41676 24055 ft 244 kts 279°
2026-04-26 02:08 48.81426 -90.44976 24052 ft 250 kts 279°
2026-04-26 02:08 48.81768 -90.46667 24051 ft 253 kts 279°
2026-04-26 02:09 48.82287 -90.49234 24048 ft 257 kts 279°
2026-04-26 02:09 48.82815 -90.51856 24048 ft 263 kts 279°
2026-04-26 02:09 48.83532 -90.55414 24050 ft 270 kts 279°
2026-04-26 02:09 48.84091 -90.58189 24042 ft 275 kts 279°
2026-04-26 02:10 48.84460 -90.60020 24048 ft 277 kts 280°
2026-04-26 02:10 48.85025 -90.62830 24049 ft 281 kts 280°
2026-04-26 02:10 48.85785 -90.66618 24055 ft 285 kts 279°
2026-04-26 02:10 48.86369 -90.69531 24053 ft 288 kts 279°
2026-04-26 02:11 48.86754 -90.71452 24044 ft 290 kts 279°
2026-04-26 02:11 48.87541 -90.75392 24041 ft 292 kts 279°
2026-04-26 02:11 48.87935 -90.77364 24045 ft 294 kts 279°
2026-04-26 02:11 48.88527 -90.80335 24048 ft 295 kts 279°
2026-04-26 02:12 48.89314 -90.84292 24043 ft 295 kts 279°
2026-04-26 02:12 48.89710 -90.86283 24051 ft 294 kts 279°
2026-04-26 02:12 48.90495 -90.90245 24049 ft 294 kts 279°
2026-04-26 02:12 48.91082 -90.93208 24037 ft 294 kts 279°
2026-04-26 02:13 48.91466 -90.95156 24040 ft 293 kts 279°
2026-04-26 02:13 48.92049 -90.98109 24045 ft 293 kts 279°
2026-04-26 02:13 48.92830 -91.02068 24044 ft 292 kts 279°
2026-04-26 02:13 48.93410 -91.05026 24048 ft 292 kts 279°
2026-04-26 02:14 48.93792 -91.06974 24039 ft 292 kts 279°
2026-04-26 02:14 48.94376 -91.09952 24041 ft 292 kts 279°
2026-04-26 02:14 48.94949 -91.12878 24035 ft 292 kts 279°
2026-04-26 02:14 48.95526 -91.15834 24037 ft 292 kts 279°
2026-04-26 02:15 48.96104 -91.18796 24043 ft 291 kts 279°
2026-04-26 02:15 48.96680 -91.21752 24047 ft 291 kts 279°
2026-04-26 02:15 48.97250 -91.24682 24042 ft 291 kts 279°
2026-04-26 02:15 48.98007 -91.28580 24038 ft 291 kts 279°
2026-04-26 02:16 48.98583 -91.31556 24040 ft 290 kts 278°
2026-04-26 02:16 48.99153 -91.34502 24044 ft 290 kts 279°
2026-04-26 02:16 48.99535 -91.36476 24048 ft 290 kts 278°
2026-04-26 02:16 49.00291 -91.40395 24043 ft 290 kts 278°
2026-04-26 02:17 49.00856 -91.43329 24042 ft 290 kts 278°
2026-04-26 02:17 49.01423 -91.46275 24046 ft 290 kts 278°
2026-04-26 02:17 49.01801 -91.48243 24045 ft 290 kts 279°
2026-04-26 02:17 49.02549 -91.52143 24047 ft 290 kts 278°
2026-04-26 02:18 49.02927 -91.54115 24046 ft 290 kts 278°
2026-04-26 02:18 49.03489 -91.57057 24049 ft 290 kts 278°
2026-04-26 02:18 49.04050 -91.59993 24050 ft 290 kts 278°
2026-04-26 02:18 49.04609 -91.62926 24044 ft 290 kts 278°
2026-04-26 02:19 49.05360 -91.66870 24050 ft 290 kts 277°
2026-04-26 02:19 49.05729 -91.68814 24050 ft 290 kts 277°
2026-04-26 02:19 49.06290 -91.71771 24048 ft 291 kts 278°
2026-04-26 02:19 49.07031 -91.75684 24045 ft 291 kts 277°
2026-04-26 02:20 49.07594 -91.78661 24050 ft 291 kts 277°
2026-04-26 02:20 49.07961 -91.80606 24051 ft 291 kts 277°
2026-04-26 02:20 49.08709 -91.84573 24058 ft 291 kts 277°
2026-04-26 02:20 49.09075 -91.86517 24048 ft 291 kts 277°
2026-04-26 02:21 49.09633 -91.89486 24052 ft 291 kts 277°
2026-04-26 02:21 49.10192 -91.92467 24052 ft 291 kts 277°
2026-04-26 02:21 49.10740 -91.95391 24052 ft 290 kts 277°
2026-04-26 02:21 49.11476 -91.99322 24054 ft 289 kts 277°
2026-04-26 02:22 49.11846 -92.01303 24059 ft 289 kts 277°
2026-04-26 02:22 49.12396 -92.04250 24064 ft 289 kts 277°
2026-04-26 02:22 49.12941 -92.07180 24054 ft 289 kts 277°
2026-04-26 02:22 49.13490 -92.10138 24051 ft 288 kts 277°
2026-04-26 02:23 49.14035 -92.13073 24053 ft 288 kts 277°
2026-04-26 02:23 49.14571 -92.15970 24050 ft 288 kts 277°
2026-04-26 02:23 49.15115 -92.18908 24054 ft 288 kts 277°
2026-04-26 02:23 49.15838 -92.22826 24056 ft 288 kts 277°
2026-04-26 02:24 49.16201 -92.24794 24058 ft 288 kts 277°
2026-04-26 02:24 49.16741 -92.27728 24056 ft 288 kts 277°
2026-04-26 02:24 49.17284 -92.30683 24061 ft 288 kts 277°
2026-04-26 02:24 49.18000 -92.34586 24058 ft 288 kts 277°
2026-04-26 02:25 49.18362 -92.36558 24062 ft 288 kts 277°
2026-04-26 02:25 49.18896 -92.39481 24064 ft 288 kts 277°
2026-04-26 02:25 49.19438 -92.42451 24051 ft 288 kts 277°
2026-04-26 02:25 49.20154 -92.46378 24057 ft 288 kts 277°
2026-04-26 02:26 49.20506 -92.48308 24063 ft 288 kts 277°
2026-04-26 02:26 49.21047 -92.51288 24060 ft 288 kts 277°
2026-04-26 02:26 49.21578 -92.54215 24064 ft 288 kts 277°
2026-04-26 02:26 49.22115 -92.57179 24063 ft 288 kts 277°
2026-04-26 02:27 49.22820 -92.61076 24066 ft 288 kts 276°
2026-04-26 02:27 49.23181 -92.63077 24059 ft 288 kts 276°
2026-04-26 02:27 49.23712 -92.66019 24062 ft 289 kts 276°
2026-04-26 02:27 49.24244 -92.68981 24060 ft 289 kts 276°
2026-04-26 02:28 49.24771 -92.71915 24055 ft 289 kts 276°
2026-04-26 02:28 49.25485 -92.75892 24060 ft 290 kts 276°
2026-04-26 02:28 49.25839 -92.77866 24062 ft 290 kts 276°
2026-04-26 02:28 49.26367 -92.80823 24059 ft 290 kts 276°
2026-04-26 02:29 49.26897 -92.83788 24060 ft 291 kts 276°
2026-04-26 02:29 49.27428 -92.86772 24062 ft 291 kts 276°
2026-04-26 02:29 49.28136 -92.90750 24061 ft 291 kts 275°
2026-04-26 02:29 49.28490 -92.92744 24064 ft 291 kts 276°
2026-04-26 02:30 49.29020 -92.95730 24064 ft 291 kts 276°
2026-04-26 02:30 49.29724 -92.99705 24067 ft 291 kts 276°
2026-04-26 02:30 49.30250 -93.02682 24065 ft 291 kts 275°
2026-04-26 02:30 49.30601 -93.04671 24068 ft 291 kts 276°
2026-04-26 02:31 49.31129 -93.07671 24061 ft 291 kts 276°
2026-04-26 02:31 49.31826 -93.11637 24063 ft 291 kts 276°
2026-04-26 02:31 49.32176 -93.13628 24062 ft 291 kts 276°
2026-04-26 02:31 49.32703 -93.16634 24064 ft 291 kts 276°
2026-04-26 02:32 49.33220 -93.19591 24059 ft 291 kts 276°
2026-04-26 02:32 49.33746 -93.22603 24063 ft 291 kts 276°
2026-04-26 02:32 49.34269 -93.25600 24060 ft 291 kts 276°
2026-04-26 02:32 49.34959 -93.29562 24058 ft 291 kts 276°
2026-04-26 02:33 49.35306 -93.31563 24060 ft 291 kts 276°
2026-04-26 02:33 49.35828 -93.34570 24063 ft 291 kts 276°
2026-04-26 02:33 49.36519 -93.38560 24065 ft 291 kts 276°
2026-04-26 02:33 49.36865 -93.40562 24060 ft 291 kts 276°
2026-04-26 02:34 49.37380 -93.43543 24065 ft 291 kts 276°
2026-04-26 02:34 49.37901 -93.46564 24069 ft 291 kts 276°
2026-04-26 02:34 49.38415 -93.49553 24058 ft 292 kts 276°
2026-04-26 02:34 49.38927 -93.52536 24060 ft 292 kts 276°
2026-04-26 02:35 49.39448 -93.55579 24058 ft 292 kts 276°
2026-04-26 02:35 49.39961 -93.58574 24059 ft 292 kts 276°
2026-04-26 02:35 49.40474 -93.61578 24063 ft 292 kts 276°
2026-04-26 02:35 49.40984 -93.64572 24063 ft 292 kts 277°
2026-04-26 02:36 49.41497 -93.67583 24064 ft 293 kts 276°
2026-04-26 02:36 49.42015 -93.70634 24063 ft 293 kts 276°
2026-04-26 02:36 49.42529 -93.73663 24063 ft 294 kts 276°
2026-04-26 02:36 49.43040 -93.76683 24063 ft 294 kts 276°
2026-04-26 02:37 49.43555 -93.79726 24062 ft 294 kts 276°
2026-04-26 02:37 49.44066 -93.82756 24064 ft 294 kts 276°
2026-04-26 02:37 49.44578 -93.85792 24060 ft 295 kts 276°
2026-04-26 02:37 49.45088 -93.88824 24059 ft 295 kts 276°
2026-04-26 02:38 49.45597 -93.91856 24062 ft 295 kts 277°
2026-04-26 02:38 49.46111 -93.94925 24063 ft 295 kts 277°
2026-04-26 02:38 49.46620 -93.97966 24065 ft 295 kts 277°
2026-04-26 02:38 49.47127 -94.01002 24061 ft 295 kts 277°
2026-04-26 02:39 49.47626 -94.04047 24062 ft 294 kts 275°
2026-04-26 02:39 49.47892 -94.07117 24074 ft 289 kts 268°
2026-04-26 02:39 49.48029 -94.10199 24066 ft 289 kts 267°
2026-04-26 02:39 49.48159 -94.13274 24060 ft 289 kts 267°
2026-04-26 02:40 49.48292 -94.16376 24070 ft 290 kts 268°
2026-04-26 02:40 49.48425 -94.19447 24074 ft 290 kts 268°
2026-04-26 02:40 49.48558 -94.22526 24074 ft 290 kts 268°
2026-04-26 02:40 49.48692 -94.25616 24068 ft 290 kts 268°
2026-04-26 02:41 49.48826 -94.28699 24067 ft 290 kts 268°
2026-04-26 02:41 49.48959 -94.31776 24071 ft 290 kts 268°
2026-04-26 02:41 49.49090 -94.34821 24068 ft 290 kts 268°
2026-04-26 02:41 49.49223 -94.37933 24069 ft 290 kts 268°
2026-04-26 02:42 49.49355 -94.41020 24062 ft 290 kts 268°
2026-04-26 02:42 49.49485 -94.44068 24071 ft 290 kts 268°
2026-04-26 02:42 49.49617 -94.47176 24073 ft 290 kts 268°
2026-04-26 02:42 49.49747 -94.50269 24074 ft 290 kts 268°
2026-04-26 02:43 49.50004 -94.56451 24065 ft 290 kts 268°
2026-04-26 02:43 49.50132 -94.59540 24067 ft 290 kts 268°
2026-04-26 02:43 49.50258 -94.62592 24070 ft 290 kts 268°
2026-04-26 02:44 49.50383 -94.65675 24071 ft 290 kts 267°
2026-04-26 02:44 49.50508 -94.68766 24078 ft 290 kts 267°
2026-04-26 02:44 49.50632 -94.71877 24069 ft 291 kts 267°
2026-04-26 02:44 49.50757 -94.74987 24070 ft 291 kts 267°
2026-04-26 02:45 49.50879 -94.78058 24077 ft 291 kts 267°
2026-04-26 02:45 49.51002 -94.81168 24076 ft 291 kts 267°
2026-04-26 02:45 49.51123 -94.84248 24066 ft 291 kts 267°
2026-04-26 02:45 49.51244 -94.87373 24069 ft 291 kts 267°
2026-04-26 02:46 49.51363 -94.90441 24068 ft 291 kts 267°
2026-04-26 02:46 49.51482 -94.93557 24070 ft 290 kts 267°
2026-04-26 02:46 49.51601 -94.96659 24068 ft 291 kts 267°
2026-04-26 02:46 49.51718 -94.99754 24063 ft 291 kts 267°
2026-04-26 02:47 49.51834 -95.02850 24057 ft 291 kts 267°
2026-04-26 02:47 49.51987 -95.06956 24068 ft 291 kts 267°
2026-04-26 02:47 49.52063 -95.09015 24069 ft 291 kts 267°
2026-04-26 02:47 49.52177 -95.12118 24059 ft 291 kts 267°
2026-04-26 02:48 49.52291 -95.15241 24059 ft 290 kts 267°
2026-04-26 02:48 49.52403 -95.18317 24063 ft 290 kts 266°
2026-04-26 02:48 49.52513 -95.21395 24067 ft 290 kts 267°
2026-04-26 02:48 49.52625 -95.24504 24069 ft 290 kts 267°
2026-04-26 02:49 49.52735 -95.27612 24065 ft 290 kts 267°
2026-04-26 02:49 49.52844 -95.30682 24058 ft 290 kts 267°
2026-04-26 02:49 49.52951 -95.33756 24066 ft 290 kts 267°
2026-04-26 02:49 49.53058 -95.36873 24016 ft 291 kts 267°
2026-04-26 02:50 49.53164 -95.39951 24002 ft 291 kts 266°
2026-04-26 02:50 49.53270 -95.43058 24002 ft 291 kts 267°
2026-04-26 02:50 49.53375 -95.46163 23998 ft 290 kts 267°
2026-04-26 02:50 49.53479 -95.49235 23991 ft 286 kts 266°
2026-04-26 02:51 49.53580 -95.52256 23994 ft 284 kts 267°
2026-04-26 02:51 49.53680 -95.55276 23990 ft 283 kts 267°
2026-04-26 02:51 49.53778 -95.58270 24001 ft 281 kts 266°
2026-04-26 02:51 49.53876 -95.61276 24004 ft 280 kts 266°
2026-04-26 02:52 49.53972 -95.64273 23998 ft 279 kts 266°
2026-04-26 02:52 49.54066 -95.67233 23994 ft 279 kts 266°
2026-04-26 02:52 49.54161 -95.70219 23994 ft 279 kts 266°
2026-04-26 02:52 49.54254 -95.73183 23988 ft 278 kts 266°
2026-04-26 02:53 49.54346 -95.76156 23815 ft 280 kts 266°
2026-04-26 02:53 49.54437 -95.79160 23512 ft 281 kts 266°
2026-04-26 02:53 49.54665 -95.82138 23152 ft 292 kts 277°
2026-04-26 02:53 49.55402 -95.85123 22784 ft 299 kts 284°
2026-04-26 02:54 49.56223 -95.88053 22407 ft 301 kts 285°
2026-04-26 02:54 49.57060 -95.91018 22048 ft 303 kts 285°
2026-04-26 02:54 49.57890 -95.93958 21707 ft 303 kts 285°
2026-04-26 02:54 49.58730 -95.96953 21352 ft 303 kts 285°
2026-04-26 02:55 49.59555 -95.99912 21020 ft 303 kts 285°
2026-04-26 02:55 49.60376 -96.02865 20693 ft 302 kts 285°
2026-04-26 02:55 49.61208 -96.05872 20351 ft 302 kts 285°
2026-04-26 02:55 49.62021 -96.08819 20035 ft 301 kts 285°
2026-04-26 02:56 49.62838 -96.11785 19723 ft 300 kts 286°
2026-04-26 02:56 49.63645 -96.14724 19415 ft 299 kts 286°
2026-04-26 02:56 49.64447 -96.17652 19115 ft 298 kts 286°
2026-04-26 02:56 49.65248 -96.20577 18816 ft 297 kts 286°
2026-04-26 02:57 49.66054 -96.23529 18515 ft 296 kts 286°
2026-04-26 02:57 49.66838 -96.26402 18227 ft 294 kts 286°
2026-04-26 02:57 49.67636 -96.29330 17918 ft 293 kts 286°
2026-04-26 02:57 49.68424 -96.32229 17628 ft 293 kts 286°
2026-04-26 02:58 49.69197 -96.35077 17345 ft 292 kts 286°
2026-04-26 02:58 49.69984 -96.37978 17059 ft 290 kts 286°
2026-04-26 02:58 49.70752 -96.40811 16781 ft 289 kts 286°
2026-04-26 02:58 49.71521 -96.43655 16458 ft 285 kts 286°
2026-04-26 02:59 49.72277 -96.46453 15996 ft 279 kts 286°
2026-04-26 02:59 49.73011 -96.49178 15537 ft 275 kts 286°
2026-04-26 02:59 49.73743 -96.51902 15060 ft 272 kts 286°
2026-04-26 02:59 49.74456 -96.54554 14584 ft 269 kts 286°
2026-04-26 03:00 49.75169 -96.57214 14120 ft 267 kts 286°
2026-04-26 03:00 49.75876 -96.59849 13644 ft 265 kts 286°
2026-04-26 03:00 49.76575 -96.62460 13179 ft 263 kts 286°
2026-04-26 03:00 49.77269 -96.65055 12695 ft 262 kts 285°
2026-04-26 03:01 49.77964 -96.67657 12126 ft 265 kts 285°
2026-04-26 03:01 49.78662 -96.70268 11687 ft 261 kts 285°
2026-04-26 03:01 49.79351 -96.72842 11319 ft 258 kts 285°
2026-04-26 03:01 49.80029 -96.75382 10988 ft 256 kts 285°
2026-04-26 03:02 49.80702 -96.77904 10657 ft 254 kts 285°
2026-04-26 03:02 49.81372 -96.80418 10327 ft 252 kts 285°
2026-04-26 03:02 49.82034 -96.82907 9997 ft 250 kts 285°
2026-04-26 03:02 49.82688 -96.85371 9684 ft 248 kts 285°
2026-04-26 03:03 49.83340 -96.87825 9369 ft 247 kts 285°
2026-04-26 03:03 49.83989 -96.90275 9057 ft 246 kts 285°
2026-04-26 03:03 49.84633 -96.92709 8742 ft 245 kts 285°
2026-04-26 03:03 49.85277 -96.95147 8425 ft 243 kts 285°
2026-04-26 03:04 49.85908 -96.97538 8123 ft 242 kts 286°
2026-04-26 03:04 49.86546 -96.99954 7816 ft 240 kts 286°
2026-04-26 03:04 49.87261 -97.02276 7481 ft 243 kts 299°
2026-04-26 03:04 49.88436 -97.04163 7188 ft 245 kts 312°
2026-04-26 03:05 49.89695 -97.05881 6876 ft 242 kts 312°
2026-04-26 03:05 49.90940 -97.07574 6567 ft 236 kts 312°
2026-04-26 03:05 49.92173 -97.09212 6234 ft 232 kts 317°
2026-04-26 03:05 49.93658 -97.10091 5923 ft 235 kts 354°
2026-04-26 03:06 49.95276 -97.09859 5646 ft 230 kts
2026-04-26 03:06 49.96822 -97.09496 5364 ft 223 kts
2026-04-26 03:06 49.98332 -97.09135 5122 ft 215 kts
2026-04-26 03:06 49.99795 -97.08790 4802 ft 210 kts
2026-04-26 03:07 50.01221 -97.08463 4481 ft 206 kts
2026-04-26 03:07 50.02610 -97.08142 4162 ft 202 kts
2026-04-26 03:07 50.03989 -97.07821 3839 ft 198 kts
2026-04-26 03:07 50.05331 -97.07507 3516 ft 194 kts
2026-04-26 03:08 50.06652 -97.07196 3191 ft 190 kts
2026-04-26 03:08 50.07946 -97.06895 2865 ft 185 kts
2026-04-26 03:08 50.09134 -97.07172 2550 ft 171 kts 325°
2026-04-26 03:08 50.10003 -97.08282 2383 ft 161 kts 303°
2026-04-26 03:09 50.10491 -97.09841 2333 ft 162 kts 276°
2026-04-26 03:09 50.10459 -97.11638 2316 ft 176 kts 255°
2026-04-26 03:09 50.10003 -97.13422 2501 ft 183 kts 236°
2026-04-26 03:09 50.09172 -97.15002 2515 ft 191 kts 221°
2026-04-26 03:10 50.08158 -97.16276 2678 ft 186 kts 216°
2026-04-26 03:10 50.07082 -97.17419 2752 ft 186 kts 214°
2026-04-26 03:10 50.06029 -97.18445 2892 ft 173 kts 211°
2026-04-26 03:10 50.04999 -97.19341 2870 ft 167 kts 209°
2026-04-26 03:11 50.03963 -97.20128 2557 ft 165 kts 202°
2026-04-26 03:11 50.02864 -97.20724 2042 ft 168 kts 198°
2026-04-26 03:11 50.01788 -97.21165 1838 ft 153 kts 194°
2026-04-26 03:11 50.00740 -97.21492 1674 ft 154 kts 193°
2026-04-26 03:12 49.99691 -97.21800 1660 ft 156 kts 191°
2026-04-26 03:12 49.98600 -97.22042 1640 ft 159 kts 190°
2026-04-26 03:12 49.97520 -97.22316 1512 ft 153 kts 191°
2026-04-26 03:12 49.96506 -97.22549 1321 ft 143 kts 190°
2026-04-26 03:13 49.95543 -97.22775 1224 ft 136 kts 190°
2026-04-26 03:13 49.94658 -97.22982 1084 ft 128 kts 190°
2026-04-26 03:13 49.93811 -97.23186 938 ft 122 kts 189°
2026-04-26 03:13 49.92949 -97.23393 856 ft 126 kts 189°
2026-04-26 03:14 49.92104 -97.23582 777 ft 115 kts 189°
2026-04-26 03:14 49.91521 -97.23714 778 ft 46 kts 186°
2026-04-26 03:14 49.91294 -97.23659 778 ft 25 kts 157°
2026-04-26 03:14 49.91174 -97.23576 778 ft 11 kts 155°
2026-04-26 03:15 49.91092 -97.23518 777 ft 14 kts 156°
2026-04-26 03:15 49.90995 -97.23447 775 ft 16 kts 154°
2026-04-26 03:15 49.90929 -97.23399 775 ft 0 kts 153°
2026-04-26 03:15 49.90929 -97.23398 775 ft 0 kts 153°
2026-04-26 03:16 49.90900 -97.23377 775 ft 10 kts 156°
2026-04-26 03:16 49.90810 -97.23315 774 ft 17 kts 156°
2026-04-26 03:16 49.90695 -97.23215 772 ft 15 kts 129°
2026-04-26 03:16 49.90691 -97.23078 771 ft 12 kts 78°
2026-04-26 03:17 49.90708 -97.22951 770 ft 12 kts 79°
2026-04-26 03:17 49.90712 -97.22883 769 ft 3 kts 121°
2026-04-26 03:17 49.90681 -97.22863 768 ft 5 kts 170°
2026-04-26 03:17 49.90645 -97.22865 768 ft 4 kts 186°
2026-04-26 03:18 49.90619 -97.22851 768 ft 4 kts 134°
2026-04-26 03:18 49.90610 -97.22820 768 ft 1 kts 110°
2026-04-26 03:18 49.90608 -97.22814 768 ft 0 kts 111°